Tracking 28790 objects as of 19-Apr-2024
HD Live streaming from Space Station
objects crossing your sky now

COSMOS 2071

Track COSMOS 2071 now!
10-day predictions
COSMOS 2071 is classified as:


NORAD ID: 20556
Int'l Code: 1990-029H
Perigee: 1,465.7 km
Apogee: 1,469.9 km
Inclination: 74.0 °
Period: 115.1 minutes
Semi major axis: 7838 km
RCS: 0.7084 m2 (medium)
Launch date: April 6, 1990
Source: Commonwealth of Independent States (former USSR) (CIS)
Launch site: PLESETSK MISSILE AND SPACE COMPLEX (PKMTR)
Your satellite tracking list
Your tracking list is empty




NASA's NSSDC Master Catalog

Two Line Element Set (TLE):
1 20556U 90029H   24109.77928836 -.00000014  00000-0  11893-4 0  9996
2 20556  73.9826 215.8507 0002702 177.8826 299.0935 12.50922387554216
Source of the keplerian elements: AFSPC